Terminal Aerodrome Forecast
Issued by NWS Sterling, VA

Current Version | Previous Version | Text Only | Print | Product List | Glossary Off
Versions: 1 2 3 4 5 6 7 8 9 10 11 12 13 14 15 16 17 18 19

814
FTUS41 KLWX 282227 AAA
TAFMRB
TAF AMD
KMRB 282227Z 2822/2918 VRB03KT 3SM BR OVC008
     FM290600 07004KT 3SM -DZ BR OVC008
     FM291200 08004KT P6SM OVC008=

USA.gov is the U.S. government's official web portal to all federal, state and local government web resources and services.